| time (UTC) | temp F | wind direction | speed MPH | gust MPH | rain 1hr in | rain 24hr in | rain mn in | humidity % | barometer mb |
| 20260906081735 | 63 | 337 | 0.0 | 0.0 | 0.00 | 0.03 | 0.02 | 87 | 1028.5 |
| 20260906080835 | 63 | 337 | 0.0 | 0.0 | 0.00 | 0.03 | 0.02 | 87 | 1028.5 |
| 20260906075835 | 63 | 67 | 0.0 | 1.0 | 0.00 | 0.03 | 0.02 | 87 | 1028.6 |
| 20260906074834 | 62 | 337 | 0.0 | 0.0 | 0.00 | 0.03 | 0.02 | 87 | 1028.6 |
| 20260906073835 | 62 | 67 | 0.0 | 1.0 | 0.00 | 0.03 | 0.02 | 87 | 1028.5 |
| 20260906072934 | 62 | 112 | 0.0 | 1.0 | 0.00 | 0.03 | 0.02 | 87 | 1028.3 |
| 20260906071936 | 63 | 67 | 0.0 | 0.0 | 0.00 | 0.03 | 0.02 | 87 | 1028.3 |
| 20260906071034 | 63 | 67 | 0.0 | 0.0 | 0.00 | 0.03 | 0.02 | 88 | 1028.4 |
| 20260906070037 | 63 | 67 | 0.0 | 1.0 | 0.00 | 0.03 | 0.02 | 88 | 1028.2 |
| 20260906065050 | 63 | 112 | 0.0 | 0.0 | 0.00 | 0.03 | 0.02 | 88 | 1028.3 |
| 20260906064135 | 63 | 160 | 1.0 | 2.0 | 0.00 | 0.03 | 0.02 | 88 | 1028.4 |
| 20260906063136 | 63 | 337 | 0.0 | 0.0 | 0.00 | 0.03 | 0.02 | 88 | 1028.6 |
| 20260906062135 | 64 | 337 | 0.0 | 0.0 | 0.00 | 0.03 | 0.02 | 88 | 1028.7 |
| 20260906061234 | 64 | 78 | 0.0 | 2.0 | 0.00 | 0.03 | 0.02 | 89 | 1028.7 |
| 20260906055336 | 65 | 90 | 0.0 | 1.0 | 0.00 | 0.03 | 0.02 | 91 | 1028.6 |
| 20260906053336 | 65 | 90 | 0.0 | 0.0 | 0.00 | 0.03 | 0.02 | 91 | 1028.5 |
| 20260906052336 | 65 | 90 | 0.0 | 0.0 | 0.00 | 0.03 | 0.02 | 91 | 1028.6 |
| 20260906051336 | 65 | 90 | 0.0 | 3.0 | 0.00 | 0.03 | 0.02 | 91 | 1028.5 |
| 20260906050335 | 66 | 90 | 0.0 | 1.0 | 0.01 | 0.03 | 0.02 | 91 | 1028.7 |
| 20260906045335 | 65 | 90 | 0.0 | 0.0 | 0.03 | 0.03 | 0.02 | 90 | 1028.8 |
| 20260906044335 | 65 | 90 | 0.0 | 0.0 | 0.03 | 0.03 | 0.02 | 90 | 1028.8 |
| 20260906042334 | 66 | 90 | 0.0 | 0.0 | 0.03 | 0.03 | 0.02 | 90 | 1028.8 |
| 20260906040337 | 66 | 299 | 0.0 | 1.0 | 0.02 | 0.02 | 0.01 | 88 | 1028.7 |
| 20260906034415 | 67 | 112 | 0.0 | 2.0 | 0.00 | 0.00 | 0.00 | 87 | 1028.7 |
| 20260906033416 | 67 | 67 | 0.0 | 1.0 | 0.00 | 0.00 | 0.00 | 87 | 1028.5 |
| 20260906032415 | 67 | 112 | 0.0 | 1.0 | 0.00 | 0.00 | 0.00 | 87 | 1028.3 |
| 20260906030416 | 67 | 90 | 0.0 | 1.0 | 0.00 | 0.00 | 0.00 | 87 | 1028.2 |
| 20260906025417 | 67 | 112 | 0.0 | 1.0 | 0.00 | 0.00 | 0.00 | 87 | 1028.0 |
| 20260906024417 | 67 | 90 | 1.0 | 3.0 | 0.00 | 0.00 | 0.00 | 86 | 1028.0 |
| 20260906022518 | 68 | 99 | 1.0 | 2.0 | 0.00 | 0.00 | 0.00 | 86 | 1027.9 |
| 20260906021515 | 68 | 90 | 0.0 | 1.0 | 0.00 | 0.00 | 0.00 | 86 | 1028.2 |
| 20260906020518 | 68 | 337 | 0.0 | 0.0 | 0.00 | 0.00 | 0.00 | 85 | 1028.1 |
| 20260906015514 | 68 | 112 | 0.0 | 1.0 | 0.00 | 0.00 | 0.00 | 84 | 1027.9 |
| 20260906013615 | 69 | 109 | 0.0 | 2.0 | 0.00 | 0.00 | 0.00 | 84 | 1027.8 |
| 20260906011615 | 69 | 82 | 0.0 | 1.0 | 0.00 | 0.00 | 0.00 | 82 | 1027.6 |
| 20260906010617 | 70 | 111 | 1.0 | 2.0 | 0.00 | 0.00 | 0.00 | 82 | 1027.5 |
| 20260906005616 | 70 | 70 | 0.0 | 3.0 | 0.00 | 0.00 | 0.00 | 81 | 1027.4 |
| 20260906004615 | 70 | 67 | 1.0 | 3.0 | 0.00 | 0.00 | 0.00 | 81 | 1027.4 |
| 20260906003714 | 70 | 67 | 0.0 | 1.0 | 0.00 | 0.00 | 0.00 | 80 | 1027.2 |
| 20260906002814 | 70 | 67 | 0.0 | 2.0 | 0.00 | 0.00 | 0.00 | 80 | 1026.9 |
| 20260906001816 | 70 | 67 | 1.0 | 1.0 | 0.00 | 0.00 | 0.00 | 79 | 1026.7 |
| 20260906000815 | 70 | 65 | 1.0 | 2.0 | 0.00 | 0.00 | 0.00 | 78 | 1026.6 |
| 20260905235816 | 70 | 100 | 1.0 | 2.0 | 0.00 | 0.00 | 0.00 | 78 | 1026.6 |
| 20260905234816 | 70 | 337 | 0.0 | 0.0 | 0.00 | 0.00 | 0.00 | 77 | 1026.5 |
| 20260905232817 | 71 | 337 | 0.0 | 0.0 | 0.00 | 0.00 | 0.00 | 76 | 1026.5 |
| 20260905225818 | 72 | 337 | 0.0 | 0.0 | 0.00 | 0.00 | 0.00 | 75 | 1026.1 |
| 20260905224915 | 72 | 337 | 0.0 | 0.0 | 0.00 | 0.00 | 0.00 | 72 | 1026.1 |
| 20260905222915 | 74 | 337 | 0.0 | 0.0 | 0.00 | 0.00 | 0.00 | 69 | 1026.0 |
| 20260905221916 | 75 | 337 | 0.0 | 0.0 | 0.00 | 0.00 | 0.00 | 67 | 1026.0 |
| 20260905220914 | 75 | 180 | 0.0 | 0.0 | 0.00 | 0.00 | 0.00 | 66 | 1025.9 |
| 20260905214915 | 76 | 337 | 0.0 | 0.0 | 0.00 | 0.00 | 0.00 | 65 | 1026.1 |
| 20260905213915 | 76 | 337 | 0.0 | 0.0 | 0.00 | 0.00 | 0.00 | 64 | 1025.8 |
| 20260905212917 | 75 | 315 | 0.0 | 0.0 | 0.00 | 0.00 | 0.00 | 64 | 1025.8 |
| 20260905211915 | 75 | 315 | 0.0 | 1.0 | 0.00 | 0.00 | 0.00 | 64 | 1025.7 |
| 20260905210916 | 75 | 337 | 0.0 | 0.0 | 0.00 | 0.00 | 0.00 | 65 | 1025.6 |
| 20260905205915 | 75 | 337 | 0.0 | 0.0 | 0.00 | 0.00 | 0.00 | 65 | 1025.5 |
| 20260905205015 | 75 | 337 | 0.0 | 0.0 | 0.00 | 0.00 | 0.00 | 67 | 1025.6 |
| 20260905204113 | 75 | 182 | 0.0 | 2.0 | 0.00 | 0.00 | 0.00 | 66 | 1025.5 |
| 20260905203115 | 74 | 337 | 0.0 | 0.0 | 0.00 | 0.00 | 0.00 | 67 | 1025.4 |
| 20260905202116 | 75 | 337 | 0.0 | 2.0 | 0.00 | 0.00 | 0.00 | 65 | 1025.5 |
| 20260905200116 | 77 | 337 | 0.0 | 1.0 | 0.00 | 0.00 | 0.00 | 57 | 1025.3 |
| 20260905195116 | 78 | 337 | 0.0 | 1.0 | 0.00 | 0.00 | 0.00 | 55 | 1025.3 |
| 20260905194213 | 80 | 337 | 0.0 | 1.0 | 0.00 | 0.00 | 0.00 | 51 | 1025.2 |
| 20260905193216 | 83 | 337 | 0.0 | 0.0 | 0.00 | 0.00 | 0.00 | 50 | 1025.2 |
| 20260905192315 | 81 | 337 | 0.0 | 2.0 | 0.00 | 0.00 | 0.00 | 51 | 1025.2 |
| 20260905191414 | 80 | 337 | 1.0 | 4.0 | 0.00 | 0.00 | 0.00 | 53 | 1025.4 |
| 20260905190417 | 80 | 337 | 3.0 | 4.0 | 0.00 | 0.00 | 0.00 | 54 | 1025.5 |
| 20260905185414 | 80 | 337 | 0.0 | 0.0 | 0.00 | 0.00 | 0.00 | 54 | 1025.4 |
| 20260905185317 | 79 | 337 | 0.0 | 1.0 | 0.00 | 0.00 | 0.00 | 55 | 1025.5 |
| 20260905184415 | 79 | 337 | 2.0 | 4.0 | 0.00 | 0.00 | 0.00 | 55 | 1025.6 |
| 20260905183417 | 78 | 337 | 0.0 | 3.0 | 0.00 | 0.00 | 0.00 | 59 | 1025.5 |
| 20260905182514 | 78 | 337 | 1.0 | 3.0 | 0.00 | 0.00 | 0.00 | 58 | 1025.7 |
| 20260905180516 | 76 | 337 | 0.0 | 1.0 | 0.00 | 0.00 | 0.00 | 60 | 1025.9 |
| 20260905175514 | 77 | 337 | 0.0 | 2.0 | 0.00 | 0.00 | 0.00 | 58 | 1025.9 |
| 20260905174517 | 77 | 337 | 0.0 | 2.0 | 0.00 | 0.00 | 0.00 | 58 | 1025.9 |
| 20260905173616 | 78 | 337 | 2.0 | 3.0 | 0.00 | 0.00 | 0.00 | 56 | 1025.9 |
| 20260905172616 | 78 | 337 | 3.0 | 5.0 | 0.00 | 0.00 | 0.00 | 57 | 1026.0 |
| 20260905171616 | 78 | 337 | 0.0 | 1.0 | 0.00 | 0.00 | 0.00 | 58 | 1026.0 |
| 20260905170616 | 77 | 337 | 0.0 | 4.0 | 0.00 | 0.00 | 0.00 | 59 | 1026.1 |
| 20260905164715 | 76 | 180 | 0.0 | 0.0 | 0.00 | 0.00 | 0.00 | 60 | 1026.0 |
| 20260905164616 | 76 | 180 | 0.0 | 1.0 | 0.00 | 0.00 | 0.00 | 60 | 1026.2 |
| 20260905163616 | 77 | 180 | 0.0 | 0.0 | 0.00 | 0.00 | 0.00 | 59 | 1026.1 |
| 20260905162615 | 77 | 180 | 0.0 | 2.0 | 0.00 | 0.00 | 0.00 | 62 | 1026.0 |
| 20260905161613 | 77 | 180 | 1.0 | 3.0 | 0.00 | 0.00 | 0.00 | 63 | 1025.9 |
| 20260905160615 | 76 | 337 | 0.0 | 2.0 | 0.00 | 0.00 | 0.00 | 65 | 1026.1 |
| 20260905155616 | 74 | 337 | 0.0 | 0.0 | 0.00 | 0.00 | 0.00 | 68 | 1026.1 |
| 20260905154614 | 75 | 337 | 2.0 | 7.0 | 0.00 | 0.00 | 0.00 | 66 | 1026.0 |
| 20260905153614 | 75 | 112 | 0.0 | 1.0 | 0.00 | 0.00 | 0.00 | 66 | 1026.2 |
| 20260905152616 | 75 | 112 | 0.0 | 1.0 | 0.00 | 0.00 | 0.00 | 66 | 1026.3 |
| 20260905151714 | 75 | 292 | 1.0 | 3.0 | 0.00 | 0.00 | 0.00 | 66 | 1026.1 |
| 20260905145718 | 75 | 337 | 2.0 | 5.0 | 0.00 | 0.00 | 0.00 | 64 | 1026.0 |
| 20260905144714 | 75 | 77 | 1.0 | 2.0 | 0.00 | 0.00 | 0.00 | 64 | 1026.0 |
| 20260905143717 | 73 | 67 | 0.0 | 0.0 | 0.00 | 0.00 | 0.00 | 66 | 1026.1 |
| 20260905142717 | 74 | 292 | 2.0 | 5.0 | 0.00 | 0.00 | 0.00 | 67 | 1025.9 |
| 20260905141714 | 74 | 341 | 1.0 | 5.0 | 0.00 | 0.00 | 0.00 | 66 | 1026.0 |
| 20260905135716 | 73 | 292 | 0.0 | 2.0 | 0.00 | 0.00 | 0.00 | 70 | 1026.0 |
| 20260905134814 | 72 | 228 | 1.0 | 5.0 | 0.00 | 0.00 | 0.00 | 71 | 1025.8 |
| 20260905133816 | 72 | 313 | 3.0 | 5.0 | 0.00 | 0.00 | 0.00 | 71 | 1025.9 |
| 20260905132914 | 73 | 292 | 3.0 | 4.0 | 0.00 | 0.00 | 0.00 | 70 | 1026.1 |
| 20260905131915 | 72 | 337 | 0.0 | 1.0 | 0.00 | 0.00 | 0.00 | 72 | 1026.2 |
| 20260905130915 | 71 | 292 | 0.0 | 1.0 | 0.00 | 0.00 | 0.00 | 75 | 1026.4 |
| 20260905130015 | 70 | 337 | 1.0 | 2.0 | 0.00 | 0.00 | 0.00 | 76 | 1026.4 |
| 20260905125016 | 71 | 335 | 2.0 | 3.0 | 0.00 | 0.00 | 0.00 | 75 | 1026.5 |
| 20260905124113 | 70 | 294 | 3.0 | 5.0 | 0.00 | 0.00 | 0.00 | 76 | 1026.4 |
| 20260905122116 | 70 | 291 | 3.0 | 5.0 | 0.00 | 0.00 | 0.00 | 78 | 1026.7 |
| 20260905120116 | 69 | 292 | 2.0 | 4.0 | 0.00 | 0.00 | 0.00 | 79 | 1026.5 |
| 20260905115117 | 68 | 285 | 2.0 | 4.0 | 0.00 | 0.00 | 0.00 | 80 | 1026.5 |
| 20260905114213 | 68 | 334 | 2.0 | 4.0 | 0.00 | 0.00 | 0.00 | 81 | 1026.3 |
| 20260905113215 | 68 | 337 | 1.0 | 3.0 | 0.00 | 0.00 | 0.00 | 83 | 1026.3 |
| 20260905112215 | 67 | 308 | 1.0 | 2.0 | 0.00 | 0.00 | 0.00 | 84 | 1026.2 |
| 20260905111217 | 67 | 292 | 2.0 | 2.0 | 0.00 | 0.00 | 0.00 | 84 | 1026.0 |
| 20260905110216 | 67 | 292 | 0.0 | 1.0 | 0.00 | 0.00 | 0.00 | 84 | 1025.9 |
| 20260905105214 | 67 | 292 | 0.0 | 0.0 | 0.00 | 0.00 | 0.00 | 84 | 1025.8 |
| 20260905103215 | 67 | 292 | 1.0 | 2.0 | 0.00 | 0.00 | 0.00 | 83 | 1025.5 |
| 20260905102217 | 67 | 292 | 0.0 | 1.0 | 0.00 | 0.00 | 0.00 | 82 | 1025.6 |
| 20260905101216 | 67 | 292 | 1.0 | 1.0 | 0.00 | 0.00 | 0.00 | 81 | 1025.6 |
| 20260905100216 | 67 | 292 | 1.0 | 1.0 | 0.00 | 0.00 | 0.00 | 81 | 1025.5 |
| 20260905095214 | 67 | 292 | 2.0 | 2.0 | 0.00 | 0.01 | 0.00 | 80 | 1025.5 |
| 20260905094216 | 68 | 292 | 1.0 | 1.0 | 0.00 | 0.01 | 0.00 | 80 | 1025.4 |
| 20260905093315 | 68 | 330 | 1.0 | 1.0 | 0.00 | 0.01 | 0.00 | 79 | 1025.3 |
| 20260905092318 | 68 | 315 | 0.0 | 1.0 | 0.00 | 0.01 | 0.00 | 78 | 1025.4 |
| 20260905091316 | 68 | 315 | 0.0 | 1.0 | 0.00 | 0.01 | 0.00 | 77 | 1025.4 |
| 20260905090316 | 69 | 337 | 0.0 | 1.0 | 0.00 | 0.01 | 0.00 | 77 | 1025.3 |
| 20260905085315 | 69 | 292 | 1.0 | 2.0 | 0.00 | 0.01 | 0.00 | 77 | 1025.5 |
| 20260905084414 | 69 | 55 | 0.0 | 2.0 | 0.00 | 0.01 | 0.00 | 77 | 1025.4 |
| 20260905082516 | 69 | 306 | 1.0 | 2.0 | 0.00 | 0.01 | 0.00 | 76 | 1025.3 |